Location: Mapua
(41.2500°S, 173.1000°E)
Time: 12:24:40
(UTC+13:00)

Hubble Space Telescope - Visible Passes

Search period start: 04 December 2023 00:00
Search period end: 14 December 2023 00:00
Orbit: 519 x 522 km, 28.5° (Epoch: 03 December)

Date Brightness Start Highest point End Pass type
(mag) Time Alt. Az. Time Alt. Az. Time Alt. Az.
04 Dec 2.9 04:15:20 12° N 04:15:20 12° N 04:16:50 10° NNE visible
05 Dec 3.0 03:59:46 12° NNE 03:59:46 12° NNE 04:00:31 10° NNE visible
07 Dec 2.8 05:04:32 10° NNW 05:05:39 11° N 05:06:46 10° N visible
08 Dec 2.9 04:48:42 10° NNW 04:49:05 10° NNW 04:49:28 10° N visible
